Location: American Medical Response
(33.3472°N, 96.5511°W)
Time: 23:39:08
(UTC+00:00)

SL-4 R/B - Pass Details

Date: 12 July 2022
Orbit: 425 x 653 km, 51.6° (Epoch: 18 August)

Event Time Altitude Azimuth Distance (km) Brightness Sun altitude
Rises 08:41:29 0° 328° (NNW) 2,518 5.7 -26.7°
Reaches altitude 10° 08:44:17 10° 352° (N) 1,684 5.1 -26.3°
Maximum altitude 08:46:40 16° 31° (NNE) 1,396 4.9 -26.1°
Drops below altitude 10° 08:49:10 10° 70° (ENE) 1,767 5.3 -25.8°
Sets 08:52:12 0° 92° (E) 2,712 6.0 -25.4°
